Regional Weather Roundup
Issued by NWS

Home | Current Version | Previous Version | Text Only | Print | Product List | Glossary Off
Versions: 1 2 3 4 5 6 7 8 9 10 11 12 13 14 15 16 17 18 19 20 21 22 23 24 25 26 27 28 29 30 31 32 33 34 35 36 37 38 39 40 41 42 43 44 45 46 47 48 49 50

000
ASUS43 KLOT 011121
RWRIL

ILLINOIS REGIONAL WEATHER ROUNDUP
NATIONAL WEATHER SERVICE CHICAGO/ROMEOVILLE IL
600 AM CDT SAT AUG 01 2015

NOTE: "FAIR" INDICATES FEW OR NO CLOUDS BELOW 12,000 FEET WITH NO
SIGNIFICANT WEATHER AND/OR OBSTRUCTIONS TO VISIBILITY.

* THESE STATIONS ARE NOT UNDER NWS QUALITY CONTROL. THEY ALSO MAY NOT
  REPORT WEATHER SUCH AS PRECIPITATION OR FOG.

ILZ001-002-007-009-015-016-024-011200-
NORTHWEST ILLINOIS

CITY           SKY/WX    TMP DP  RH WIND       PRES   REMARKS
MOLINE         CLEAR     59  55  87 SW3       30.02S
STERLING*      CLEAR     61  55  82 W5        30.00R
SAVANNA*       CLEAR     58  56  94 CALM      30.01S
$$

ILZ003-004-008-010-011-017-018-011200-
NORTH CENTRAL ILLINOIS

CITY           SKY/WX    TMP DP  RH WIND       PRES   REMARKS
ROCKFORD       CLEAR     57  53  86 S5        30.02R
FREEPORT*      CLEAR     60  56  86 SW6       30.02S
ROCHELLE*      CLEAR     54  53  97 S5        30.02S
DE KALB*       CLEAR     60  56  84 W5        30.02S
PERU*          CLEAR     61  56  84 NW6       30.02F
$$

ILZ005-006-012>014-019>023-011200-
NORTHEAST ILLINOIS

CITY           SKY/WX    TMP DP  RH WIND       PRES   REMARKS
CHICAGO-OHARE  CLEAR     64  53  67 W8        29.98S
CHICAGO-MIDWAY PTCLDY    67  52  58 W6        29.99R
AURORA         CLEAR     56  52  86 W5        30.01S
LANSING*       CLEAR     61  54  77 W5        30.00R
JOLIET*        CLEAR     57  56  94 CALM      30.01R
WAUKEGAN       CLEAR     61  53  75 VRB3      29.97S
DUPAGE AIRPORT CLEAR     61  53  75 CALM      30.00R
KANKAKEE*      CLEAR     59  57  92 W3        30.02S
WHEELING       CLEAR     64  52  64 W3        30.00R
MORRIS*        CLEAR     58  56  91 W6        30.00S
ROMEOVILLE*    CLEAR     59  54  83 W6        30.01R
NORTHERLY ISL    N/A     70  53  54 W7          N/A
$$

LMZ740>746-011200-
SOUTHERN LAKE MICHIGAN

STATION/POSITION SKY/WX   TEMP    WIND        PRES    VSBY  WAVE
                          AIR SEA DIR/SP/G                  HT/PER
                          (F)     (DEG/KT/KT) (MB)    (MI)  (FT/S)
HARRISON CRIB              69     270/ 12/ 13   N/A
BURNHAM HARBOR             69     270/  7/ 10   N/A
CALUMET HARBOR             67     250/  3/  5   N/A
BURNS HARBOR               71     250/  7/ 12 1015.6S
MICHIGAN CITY              72     260/ 15/ 17   N/A
MICHIGAN CITY 6N           73 74  300/ 12/ 16   N/A           3/ 4
ST. JOSEPH                 72 74  320/ 12/ 14   N/A           3/ 4
$$

ILZ025>027-034>036-040-047-049-050-058-095>099-011200-
WEST-CENTRAL ILLINOIS

CITY           SKY/WX    TMP DP  RH WIND       PRES   REMARKS
QUINCY         MOCLDY    68  67  96 CALM      30.05R
GALESBURG*     CLEAR     58  56  96 CALM      30.04R
MACOMB*        CLEAR     59  58  96 CALM      30.06S
JACKSONVILLE*  PTCLDY    65  63  93 W3        30.05R
PITTSFIELD*    MOCLDY    68  65  91 CALM      30.06S
$$

ILZ028>032-037-038-041>044-048-051>054-059>061-011200-
CENTRAL ILLINOIS

CITY           SKY/WX    TMP DP  RH WIND       PRES   REMARKS
PONTIAC        CLEAR     59  58  96 W3        30.03S
BLOOMINGTON    CLEAR     64  58  81 W6        30.05S
DECATUR        CLEAR     66  56  70 N5        30.04S
PEORIA         CLEAR     65  58  78 CALM      30.03S
LACON*         CLEAR     59  57  92 CALM      30.02S
LINCOLN*       CLEAR     61  57  88 CALM      30.04S
SPRINGFIELD    PTCLDY    64  60  87 CALM      30.04S
TAYLORVILLE    PTCLDY    61  61 100 CALM      30.04S
$$

ILZ033-039-045-046-055>057-062-063-011200-
EAST-CENTRAL ILLINOIS

CITY           SKY/WX    TMP DP  RH WIND       PRES   REMARKS
CHAMPAIGN      CLEAR     59  56  89 W3        30.04R
DANVILLE*      CLEAR     61  57  87 NW5       30.00S
RANTOUL*       CLEAR     61  58  90 W6        30.03S
MATTOON        CLEAR     64  56  75 CALM      30.03S
PARIS*         CLEAR     57  56  96 CALM      30.04R
$$

ILZ079-100>102-011200-
SOUTHWEST ILLINOIS

CITY           SKY/WX    TMP DP  RH WIND       PRES   REMARKS
ALTON          PTCLDY    65  64  97 NW3       30.04S
BELLEVILLE     CLEAR     68  68  99 CALM      30.02R
CAHOKIA*       CLEAR     70  66  87 CALM      30.03R
SPARTA*        CLEAR     68  66  92 CALM      30.04R
$$

ILZ064>066-069>071-074>076-080>082-084>086-088>090-092>094-011200-
SOUTH-CENTRAL ILLINOIS

CITY           SKY/WX    TMP DP  RH WIND       PRES   REMARKS
CARBONDALE     CLEAR     68  67  96 CALM      30.02S
CAIRO*           N/A     68  68 100 CALM      30.02R FOG
EFFINGHAM*     CLEAR     66  61  84 CALM      30.05R
MARION         CLEAR     68  66  94 CALM      30.03S
MT. VERNON     CLEAR     64  61  88 CALM      30.04R
CENTRALIA*     CLEAR     64  62  91 CALM      30.03S
SALEM*         CLEAR     69  65  89 N3        30.03S
METROPOLIS*    CLEAR     68  68 100 CALM      30.02S
$$

ILZ067-068-072-073-078-083-087-091-011200-
SOUTHEAST ILLINOIS

CITY           SKY/WX    TMP DP  RH WIND       PRES   REMARKS
LAWRENCEVILLE  CLEAR     67  61  81 N7        30.02R
FLORA*         CLEAR     68  65  90 N3        30.03S
FAIRFIELD*     CLEAR     66  65  99 CALM      30.01S
HARRISBURG*    CLEAR     66  66 100 CALM      30.02S
ROBINSON*      CLEAR     63  60  91 NW5       30.03S
CARMI*         CLEAR     69  64  82 CALM      30.02R
$$

ABBREVIATIONS USED IN REMARKS
   TC - TEMPERATURE IN CELSIUS
  WCI - WIND CHILL INDEX
   HX - HEAT INDEX
  VSB - VISIBILITY
$$




USA.gov is the U.S. government's official web portal to all federal, state and local government web resources and services.